Location: Unspecified
(0.0000°N, 0.0000°E)
Time: 05:50:17
(UTC+00:00)

S-56A Canister/Altair - Pass Details

Date: 25 May 2024
Orbit: 637 x 2489 km, 38.9° (Epoch: 21 June)

Event Time Altitude Azimuth Distance (km) Brightness Sun altitude
Rises 01:02:05 0° 220° (SW) 5,465 - -63.7°
Reaches altitude 10° 01:05:26 10° 217° (SW) 4,655 - -63.1°
Maximum altitude 01:19:04 64° 137° (SE) 2,665 - -61.0°
Exits shadow 01:25:55 38° 74° (ENE) 3,357 10.7 -59.8°
Drops below altitude 10° 01:33:44 10° 59° (ENE) 4,993 12.0 -58.4°
Sets 01:37:26 0° 57° (ENE) 5,870 12.5 -57.7°
